Portage Glacier, AK

8:30 PM AKDT on March 22, 2017 (GMT -0800)
Portage Glacier

Weather History for PATO - October, 2012

Change the Weather History Date:

Wednesday, October 24, 2012

  Actual Average (PAWR) Record (PAWR)
Temperature  
Mean Temperature 14 °F -  
Max Temperature 27 °F 39 °F 53 °F (1957)
Min Temperature 3 °F 33 °F 21 °F (2008)
Degree Days  
Heating Degree Days 51    
Moisture  
Dew Point 8 °F    
Average Humidity 90    
Maximum Humidity 95    
Minimum Humidity 78    
Precipitation  
Precipitation 0.00 in - - ()
Sea Level Pressure  
Sea Level Pressure 30.32 in    
Wind  
Wind Speed 0 mph (North)    
Max Wind Speed 4 mph    
Max Gust Speed -    
Visibility 10 miles    
Events      
Averages and records for this station are not official NWS values.
T = Trace of Precipitation, MM = Missing Value Source: NWS Daily Summary

Daily Weather History Graph

Daily Weather History Graph

Search for Another Location

Airport or City:

Trip Planner

Search our weather history database for the weather conditions in past years. The results will help you decide how hot, cold, wet, or windy it might be!

Date:

Astronomy

Oct. 24, 2012 Rise Set
Actual Time 9:01 AM AKDT 6:15 PM AKDT
Civil Twilight 8:16 AM AKDT 7:00 PM AKDT
Nautical Twilight 7:26 AM AKDT 7:50 PM AKDT
Astronomical Twilight 6:37 AM AKDT 8:39 PM AKDT
Moon 4:39 PM AKDT (10/24) 2:54 AM AKDT (10/24)
Length of Visible Light 10h 43m
Length of Day
9h 14m
Waxing Gibbous, 77% of the Moon is Illuminated
Oct 24
Waxing Gibbous
Oct 29
Full
Nov 6
Last Quarter
Nov 13
New
Nov 20
First Quarter

Hourly Weather History & Observations

Time (AKDT) Temp. Windchill Dew Point Humidity Pressure Visibility Wind Dir Wind Speed Gust Speed Precip Events Conditions
12:53 AM 8.1 °F - 6.1 °F 92% 30.29 in 10.0 mi Calm Calm - N/A   Clear
1:53 AM 6.1 °F - 3.0 °F 87% 30.29 in 10.0 mi Calm Calm - N/A   Clear
2:53 AM 6.1 °F - 3.0 °F 87% 30.28 in 10.0 mi Calm Calm - N/A   Clear
3:53 AM 5.0 °F - 3.0 °F 92% 30.29 in 10.0 mi Calm Calm - N/A   Clear
4:53 AM 3.9 °F - 1.0 °F 88% 30.29 in 10.0 mi Calm Calm - N/A   Clear
5:53 AM 3.9 °F - 1.9 °F 91% 30.29 in 10.0 mi Calm Calm - N/A   Clear
6:53 AM 3.0 °F - -0.0 °F 87% 30.29 in 10.0 mi Calm Calm - N/A   Clear
7:53 AM 3.9 °F - 1.0 °F 88% 30.29 in 10.0 mi Calm Calm - N/A   Clear
8:53 AM 3.9 °F - 1.0 °F 88% 30.30 in 10.0 mi Calm Calm - N/A   Partly Cloudy
9:53 AM 5.0 °F -2.1 °F 3.0 °F 92% 30.30 in 10.0 mi WSW 3.5 mph - N/A   Clear
10:53 AM 12.0 °F - 10.9 °F 95% 30.31 in 10.0 mi Calm Calm - N/A   Clear
11:53 AM 15.1 °F - 14.0 °F 95% 30.32 in 10.0 mi Calm Calm - N/A   Clear
12:53 PM 21.0 °F - 18.0 °F 88% 30.32 in 10.0 mi Calm Calm - N/A   Clear
1:53 PM 25.0 °F 20.7 °F 19.0 °F 78% 30.32 in 10.0 mi ESE 3.5 mph - N/A   Clear
2:53 PM 19.0 °F - 15.1 °F 85% 30.32 in 10.0 mi Calm Calm - N/A   Clear
3:53 PM 18.0 °F - 15.1 °F 88% 30.33 in 10.0 mi Calm Calm - N/A   Clear
4:53 PM 15.1 °F - 12.9 °F 91% 30.33 in 10.0 mi Calm Calm - N/A   Clear
5:53 PM 15.1 °F - 14.0 °F 95% 30.35 in 10.0 mi Calm Calm - N/A   Clear
6:53 PM 12.9 °F - 10.9 °F 92% 30.36 in 10.0 mi Calm Calm - N/A   Clear
7:53 PM 12.9 °F - 10.9 °F 92% 30.38 in 10.0 mi Calm Calm - N/A   Clear
10:53 PM 10.0 °F 3.6 °F 9.0 °F 95% 30.42 in 10.0 mi WNW 3.5 mph - N/A   Clear
11:53 PM 10.0 °F 3.6 °F 8.1 °F 92% 30.44 in 10.0 mi ESE 3.5 mph - N/A   Clear